Location: Unspecified
(49.2170°N, 0.0000°E)
Time: 14:30:45
(UTC+00:00)

Tiros 1 despin weight - Pass Details

Date: 30 January 2021
Orbit: 593 x 642 km, 48.2° (Epoch: 06 March)

Event Time Altitude Azimuth Distance (km) Brightness Sun altitude
Rises 11:46:45 0° 216° (SW) 2,912 ? 23.0°
Reaches altitude 10° 11:49:20 10° 204° (SSW) 2,000 ? 23.1°
Maximum altitude 11:53:12 27° 147° (SSE) 1,207 ? 23.1°
Drops below altitude 10° 11:57:01 10° 90° (E) 1,982 ? 23.2°
Sets 11:59:34 0° 78° (ENE) 2,880 ? 23.2°
